UK-DMC 2

Last updated on Thu Jul 03 2025 00:02:36 GMT+0000 (Coordinated Universal Time)

1 35683U 09041C 25183.60171344 .00000635 00000+0 10117-3 0 9990 2 35683 97.8348 323.4014 0001336 82.1462 277.9899 14.75171064855015
UTC large
Height (km)
Speed (km/s)
/
Latitude / Longitude
Inclination (degrees)
Orbital Period (minutes)
Azimuth
Elevation
Range (km)
Doppler Factor

Next 0 passes for location: London (51.5072 / 0.1276)

Sorry there are no passes over London.